EHI
0 0 0 0 0 0 0 0 0 0 0 0 0 0 0 0 0 0 0 0 0 0 0 0 0 0 0 0 0 0 0 0 0 0 0 0 0 0 0 0 0 0 0
0 0 0 0 0 0 0 0 0 0 0 0 0 0 0 0 0 0 0 0 0 0 0 0 0 0 0 0 0 0 0 0 0 0 0 0 0 0 0 0 0 0 0
0 0 0 0 0 0 0 0 0 0 0 0 0 0 0 0 0 0 0 0 0 0 0 0 0 0 0 0 0 0 0 0 0 0 0 0 0 0 0 0 0 0 0
0 0 0 0 0 0 0 0 0 0 0 0 0 0 0 0 0 0 0 0 0 0 0 0 0 0 0 0 0 0 0 0 0 0 0 0 0 0 0 0 0 0 0
0 0 0 0 0 0 0 0 0 0 0 0 0 0 0 0 0 0 0 0 0 0 0 0 0 0 0 0 0 0 0 0 0 0 0 0 0 0 0 0 0 0 0
0 0 0 0 0 0 0 0 0 0 0 0 0 0 0 0 0 0 0 0 0 0 0 0 0 0 0 0 0 0 0 0 0 0 0 0 0 0 0 0 0 0 0
0 0 0 0 0 0 0 0 0 0 0 0 0 0 0 0 0 0 0 0 0 0 0 0 0 0 0 0 0 0 0 0 0 0 0 0 0 0 0 0 0 0 0
0 0 0 0 0 0 0 0 0 0 0 0 0 0 0 0 0 0 0 0 0 0 0 0 0 0 0 0 0 0 0 0 0 0 0 0 0 0 0 0 0 0 0
0 0 0 0 0 0 0 0 0 0 0 0 0 0 0 0 0 0 0 0 0 0 0 0 0 0 0 0 0 0 0 0 0 0 0 0 0 0 0 0 0 0 0
0 0 0 0 0 0 0 0 0 0 0 0 0 0 0 0 0 0 0 0 0 0 0 0 0 0 0 0 0 0 0 0 0 0 0 0 0 0 0 0 0 0 0
0 0 0 0 0 0 0 0 0 0 0 0 0 0 0 0 0 0 0 0 0 0 0 0 0 0 0 0 0 0 0 0 0 0 0 0 0 0 0 0 0 0 0
0 0 0 0 0 0 0 0 0 0 0 0 0 0 0 0 0 0 0 0 0 0 0 0 0 0 0 0 0 0 0 0 0 0 0 0 0 0 0 0 0 0 0
0 0 0 0 0 0 0 0 0 0 0 0 0 0 0 0 0 0 0 0 0 0 0 0 0 0 0 0 0 0 0 0 0 0 0 0 0 0 0 0 0 0 0
0 0 0 0 0 0 0 0 0 0 0 0 0 0 0 0 0 0 0 0 0 0 0 0 0 0 0 0 0 0 0 0 0 0 0 0 0 0 0 0 0 0 0
0 0 0 0 0 0 0 0 0 0 0 0 0 0 0 0 0 0 0 0 0 0 0 0 0 0 0 0 0 0 0 0 0 0 0 0 0 0 0 0 0 0 0
0 0 0 0 0 0 0 0 0 0 0 0 0 0 0 0 0 0 0 0 0 0 0 0 0 0 0 0 0 0 0 0 0 0 0 0 0 0 0 0 0 0 0
0 0 0 0 0 0 0 0 0 0 0 0 0 0 0 0 0 0 0 0 0 0 0 0 0 0 0 0 0 0 0 0 0 0 0 0 0 0 0 0 0 0 0
0 0 0 0 0 0 0 0 0 0 0 0 0 0 0 0 0 0 0 0 0 0 0 0 0 0 0 0 0 0 0 0 0 0 0 0 0 0 0 0 0 0 0
0 0 0 0 0 0 0 0 0 0 0 0 0 0 0 0 0 0 0 0 0 0 0 0 0 0 0 0 0 0 0 0 0 0 0 0 0 0 0 0 0 0 0
0 0 0 0 0 0 0 0 0 0 0 0 0 0 0 0 0 0 0 0 0 0 0 0 0 0 0 0 0 0 0 0 0 0 0 0 0 0 0 0 0 0 0
0 0 0 0 0 0 0 0 0 0 0 0 0 0 0 0 0 0 0 0 0 0 0 0 0 0 0 0 0 0 0 0 0 0 0 0 0 0 0 0 0 0 0
0 0 0 0 0 0 0 0 0 0 0 0 0 0 0 0 0 0 0 0 0 0 0 0 0 0 0 0 0 0 0 0 0 0 0 0 0 0 0 0 0 0 0
0 0 0 0 0 0 0 0 0 0 0 0 0 0 0 0 0 0 0 0 0 0 0 0 0 0 0 0 0 0 0 0 0 0 0 0 0 0 0 0 0 0 0
0 0 0 0 0 0 0 0 0 0 0 0 0 0 0 0 0 0 0 0 0 0 0 0 0 0 0 0 0 0 0 0 0 0 0 0 0 0 0 0 0 0 0
0 0 0 0 0 0 0 0 0 0 0 0 0 0 0 0 0 0 0 0 0 0 0 0 0 0 0 0 0 0 0 0 0 0 0 0 0 0 0 0 0 0 0
0 0 0 0 0 0 0 0 0 0 0 0 0 0 0 0 0 0 0 0 0 0 0 0 0 0 0 0 0 0 0 0 0 0 0 0 0 0 0 0 0 0 0
Wind_Speed
1 1 1 2 3 4 4 4 4 5 4 3 3 3 4 4 4 4 5 6 5 5 4 3 3 4 3 4 4 3 3 2 3 2 2 2 2 1 1 1 1 1 2
1 1 1 2 2 2 3 3 4 4 4 3 2 1 2 2 2 3 5 6 6 5 4 4 3 3 3 4 4 3 2 2 2 1 2 2 2 1 2 1 1 1 2
4 3 1 0 1 2 2 3 3 4 4 4 3 3 2 2 3 4 5 5 6 5 4 4 3 3 3 3 4 3 2 2 2 1 0 1 2 3 2 2 1 1 1
4 3 2 1 0 1 2 2 3 4 4 4 3 3 3 3 4 3 4 5 5 5 5 4 4 3 2 3 3 3 2 2 2 2 1 2 2 2 3 2 1 1 2
4 4 3 2 1 0 1 2 2 3 3 3 3 3 3 2 3 3 4 5 5 4 5 4 3 3 3 3 4 3 3 2 2 2 2 2 2 3 3 4 3 3 2
4 3 2 1 1 0 1 1 2 3 3 3 2 2 2 3 4 5 4 4 4 4 5 5 4 4 3 4 4 4 4 3 3 3 2 2 2 2 2 4 4 5 4
4 3 3 2 1 1 1 1 1 3 3 3 2 2 2 3 3 4 4 4 4 4 5 5 4 4 4 4 4 4 4 4 4 4 4 3 4 3 4 4 4 5 4
3 4 3 3 2 2 1 1 2 2 3 2 3 2 3 2 3 3 3 4 4 5 6 5 4 5 5 5 4 4 4 4 4 5 5 4 4 4 4 4 4 5 4
4 4 3 2 2 2 2 2 2 3 3 3 3 3 3 3 3 4 3 3 4 5 6 5 5 5 5 5 5 4 5 5 5 5 6 5 4 4 4 4 4 4 5
3 3 3 2 2 2 2 2 2 3 3 3 3 3 3 4 4 4 4 5 5 5 6 6 5 5 6 5 5 5 5 5 5 5 6 6 5 4 4 4 4 5 5
4 3 3 2 2 2 2 2 3 3 3 4 4 4 4 4 4 4 5 5 5 6 6 6 6 6 6 6 5 5 6 6 6 6 7 7 7 5 5 5 5 5 5
3 3 2 2 2 2 2 2 3 3 4 4 4 4 4 4 5 5 5 5 6 6 6 6 6 6 7 6 6 7 7 7 7 7 7 8 7 7 6 5 6 6 6
2 2 2 2 2 2 3 3 3 4 4 3 4 4 5 5 5 6 6 5 6 6 6 6 6 7 7 7 7 7 7 8 8 8 8 8 8 8 7 7 7 6 6
2 2 2 3 3 3 3 3 4 4 4 3 4 5 5 5 6 6 6 6 6 6 6 6 7 7 8 8 8 8 8 8 8 9 9 8 8 9 8 7 8 7 6
2 3 3 3 3 3 3 4 4 4 4 4 5 5 6 6 6 6 6 6 6 7 7 7 7 7 7 7 8 9 9 8 8 8 8 9 11 12 11 8 7 7 6
3 3 3 3 4 4 4 4 4 4 4 4 5 6 6 6 6 6 6 6 6 7 7 7 7 8 7 12 15 12 8 8 9 9 8 9 10 12 14 15 14 12 9
3 3 3 4 4 4 4 4 4 4 4 5 6 6 6 6 7 7 7 7 7 7 7 8 7 8 10 15 16 15 10 8 8 8 8 8 8 11 9 12 14 14 15
3 3 3 3 3 3 4 4 4 4 5 5 6 6 6 7 7 7 7 7 6 7 7 8 8 8 10 15 16 16 10 8 8 8 9 9 9 9 11 10 10 10 10
3 3 3 3 3 3 4 4 4 5 5 6 6 6 6 7 7 7 7 7 6 7 7 8 7 8 9 14 16 15 7 7 8 9 9 9 9 13 15 10 9 10 8
2 2 2 2 3 4 3 3 5 5 6 6 7 7 7 7 8 8 7 6 6 7 8 8 7 7 8 13 15 15 6 7 7 7 8 12 12 14 14 9 8 9 7
2 2 2 2 3 4 3 4 5 6 7 7 7 7 7 7 8 7 6 6 6 6 6 8 7 7 9 12 15 15 7 6 7 7 6 6 13 14 14 12 8 9 8
2 2 2 3 4 3 3 5 6 7 7 7 7 7 7 6 6 6 6 6 5 6 6 6 7 6 7 10 12 15 13 11 8 7 6 7 13 14 15 10 9 11 9
2 2 2 4 4 3 3 5 7 6 7 7 7 7 7 6 6 6 7 6 4 4 5 5 6 6 6 7 13 15 15 15 9 7 11 13 14 13 9 10 11 8 4
3 3 3 4 5 5 5 5 6 6 6 7 7 7 6 6 6 5 5 5 5 4 5 6 6 6 6 6 6 6 7 10 9 7 9 12 12 9 8 7 5 4 3
3 3 3 5 6 6 6 6 6 5 6 7 6 6 6 6 5 5 4 6 5 6 7 6 6 7 6 8 13 10 7 6 6 6 4 4 4 3 3 3 3 3 3
3 4 4 5 6 6 7 6 5 5 5 6 6 5 5 5 5 5 6 9 10 12 13 13 12 9 12 15 15 15 14 13 12 7 4 4 4 4 4 4 4 4 3
Wind_Direction
206 86 63 46 37 26 26 23 22 11 10 5 2 359 359 356 2 3 5 6 4 3 6 6 1 358 358 348 345 343 344 348 344 340 328 311 294 290 301 301 303 337 351
185 149 79 51 35 20 17 19 16 7 3 359 346 334 327 337 344 350 357 2 2 360 2 3 358 351 349 352 352 352 346 334 1 350 326 323 325 325 304 286 282 316 346
200 198 185 125 38 17 7 10 3 4 2 1 1 358 356 343 351 351 351 353 354 355 353 349 349 348 348 342 335 343 346 316 307 341 328 304 289 312 280 267 270 302 324
199 193 188 188 214 351 5 8 5 5 3 7 18 14 0 343 334 329 331 336 341 344 347 342 343 338 333 328 321 341 318 296 289 293 297 268 262 277 295 280 262 286 296
196 191 190 190 189 45 4 353 2 358 358 3 11 14 358 333 322 325 333 338 334 338 339 337 335 332 323 316 312 315 306 282 271 278 284 294 291 254 256 278 287 291 266
193 190 182 162 173 6 5 358 359 348 348 352 354 1 343 332 331 333 334 334 330 327 330 331 333 324 315 309 305 296 289 276 274 278 264 253 255 261 262 268 279 283 277
183 183 185 196 216 256 299 328 337 329 331 336 336 333 323 315 314 317 321 326 327 321 320 324 318 313 309 303 297 292 283 269 264 265 267 259 258 263 270 275 281 287 292
189 192 199 209 218 232 260 286 293 302 309 317 318 316 313 309 308 307 307 314 310 304 306 309 308 306 304 306 296 290 279 272 264 268 267 264 263 260 257 261 274 285 286
201 200 205 216 225 232 249 257 272 289 296 299 303 304 306 309 304 302 304 304 300 304 309 304 306 302 300 296 293 285 281 274 263 263 264 265 259 255 257 251 250 253 267
213 212 217 229 239 244 259 276 268 275 288 294 294 303 306 304 301 303 305 304 301 302 307 308 309 307 302 298 292 288 282 277 270 264 262 266 263 255 254 249 250 253 254
219 221 231 241 254 265 260 275 284 292 296 298 300 303 301 302 301 296 295 297 298 302 300 302 303 302 300 296 292 289 287 281 280 273 265 264 264 257 252 249 244 250 252
214 214 222 237 258 276 284 280 286 288 291 294 297 297 301 303 301 298 297 297 296 297 295 297 296 296 296 292 287 287 288 281 278 276 270 267 266 258 254 247 244 246 247
213 221 231 243 256 272 286 287 287 289 295 297 298 301 300 299 298 296 296 297 296 295 297 294 292 292 292 291 285 280 280 276 272 269 266 266 268 265 260 253 248 249 252
222 232 248 255 265 275 283 289 292 292 297 299 296 293 293 290 289 291 294 295 294 294 293 290 286 288 289 290 287 282 278 274 272 269 266 263 257 262 262 260 250 249 251
247 248 251 261 273 284 290 291 293 296 296 298 295 290 292 291 291 291 291 291 293 294 292 293 289 288 287 286 289 286 280 277 273 269 266 266 264 266 265 262 253 248 245
260 262 262 265 272 279 287 294 295 297 298 292 289 291 295 295 293 291 292 294 295 294 292 292 290 291 291 298 299 297 285 278 273 273 272 272 268 268 273 272 267 260 250
266 263 266 265 268 272 278 280 284 294 294 288 290 294 296 296 294 294 296 295 294 292 290 290 286 282 286 297 301 301 291 278 272 270 271 273 273 276 273 272 271 265 259
267 269 270 276 282 284 286 287 293 294 290 289 292 296 297 296 297 295 292 291 289 288 286 289 286 286 291 300 303 302 294 281 273 268 265 266 269 264 271 265 262 259 254
261 267 271 283 295 298 297 300 300 298 293 294 298 299 297 296 297 294 293 290 289 289 287 288 285 285 291 299 302 303 293 283 278 273 270 270 268 272 276 270 266 267 264
290 289 303 315 306 302 304 302 301 302 298 299 299 298 297 297 295 291 292 292 289 288 291 291 287 284 288 296 301 303 291 288 286 281 276 277 278 280 280 268 263 266 267
313 317 318 312 301 307 312 305 304 297 297 303 302 300 299 296 292 292 294 292 291 293 291 291 290 285 288 296 299 301 295 289 289 289 287 284 290 291 287 282 268 267 275
334 327 316 309 314 317 312 306 302 301 307 307 304 302 301 299 302 301 301 300 294 294 293 293 295 289 289 296 298 300 299 300 289 286 287 289 296 297 294 288 283 284 284
318 317 303 306 315 315 306 298 301 309 312 310 306 304 305 304 304 302 303 305 300 292 293 293 295 299 297 296 301 302 303 302 297 290 294 298 301 300 295 293 296 294 278
313 314 314 311 311 313 310 297 303 310 310 307 306 307 308 306 304 302 300 302 296 293 293 292 295 297 298 296 294 292 295 299 299 301 302 306 308 306 304 303 299 290 275
311 308 305 302 304 310 308 308 312 312 310 306 303 306 306 302 303 302 295 296 282 285 293 292 289 295 295 298 306 307 301 300 296 304 302 305 307 306 306 304 300 293 289
306 308 304 303 304 308 307 308 309 308 306 308 308 305 304 304 306 307 309 306 304 305 303 304 302 295 298 305 308 309 311 313 315 313 304 305 303 302 301 299 300 298 292